Regional Weather Roundup
Issued by NWS

Home | Current Version | Previous Version | Graphics & Text | Print | Product List | Glossary On
Versions: 1 2 3 4 5 6 7 8 9 10 11 12 13 14 15 16 17 18 19 20 21 22 23 24 25 26 27 28 29 30 31 32 33 34 35 36 37 38 39 40 41 42 43 44 45 46 47 48 49 50
000
ASUS43 KMKX 190800
RWRWI

WISCONSIN REGIONAL WEATHER ROUNDUP
NATIONAL WEATHER SERVICE MILWAUKEE/SULLIVAN WI
300 AM CDT SAT APR 19 2014

NOTE: "FAIR" INDICATES FEW OR NO CLOUDS BELOW 12,000 FEET WITH NO
SIGNIFICANT WEATHER AND/OR OBSTRUCTIONS TO VISIBILITY.

WIZ001-002-006>008-014>016-023>028-190900-
NORTHWEST WISCONSIN

CITY           SKY/WX    TMP DP  RH WIND       PRES   REMARKS
SUPERIOR ARPT  CLOUDY    32  28  88 NE10G16   30.28F WCI  23
ASHLAND        CLOUDY    30  27  88 N3        30.33F
HAYWARD        CLOUDY    38  20  48 SE7       30.27F WCI  33
SIREN          MOCLDY    42  21  44 SE12G18   30.22F
RICE LAKE      MOCLDY    39  25  56 SE12      30.28S WCI  32
LADYSMITH      CLOUDY    38  26  61 SE9       30.33R WCI  32
EAU CLAIRE     NOT AVBL
MENOMONIE      PTSUNNY   40  27  59 E9        30.26F WCI  34
NEW RICHMOND   MOCLDY    40  26  56 SE13G18   30.21F WCI  33
OSCEOLA        MOCLDY    42  27  55 SE23G30   30.21F
$$

WIZ003>005-009-010-017-018-190900-
NORTH CENTRAL WISCONSIN

CITY           SKY/WX    TMP DP  RH WIND       PRES   REMARKS
WOODRUFF       CLOUDY    33  24  70 SE7       30.34S WCI  27
RHINELANDER    CLOUDY    31  23  72 SE12G21   30.36R WCI  22
EAGLE RIVER    CLOUDY    31  23  72 CALM      30.36R
LAND O LAKES   CLOUDY    31  25  78 SE3       30.36F
PHILLIPS       MOCLDY    34  23  66 SE7       30.33R WCI  27
TOMAHAWK       CLOUDY    33  24  69 CALM      30.36R
MEDFORD        MOCLDY    34  28  77 SE12      30.34R WCI  25
MERRILL        CLOUDY    34  25  69 CALM      30.37R
$$

WIZ029-030-035-036-043>047-190900-
CENTRAL WISCONSIN

CITY           SKY/WX    TMP DP  RH WIND       PRES   REMARKS
WAUSAU         CLOUDY    34  26  72 SE9       30.37R WCI  27
MOSINEE        CLOUDY    34  28  80 E9        30.38R WCI  26
MARSHFIELD     MOCLDY    35  26  69 SE13      30.36R WCI  26
STEVENS POINT  MOCLDY    32  24  73 SE8       30.38S WCI  25
WAUPACA        MOCLDY    36  27  69 E5        30.41R WCI  32
WAUTOMA        NOT AVBL
WISC RAPIDS    MOCLDY    35  25  66 SE8       30.39R WCI  29
CAMP DOUGLAS   NOT AVBL
$$

WIZ011>013-019>022-031-037>040-048>050-190900-
NORTHEAST WISCONSIN

CITY           SKY/WX    TMP DP  RH WIND       PRES   REMARKS
ANTIGO         MOCLDY    31  25  77 SE9       30.37S WCI  23
STURGEON BAY   PTCLDY    30  27  86 E6        30.44F WCI  24
GREEN BAY      MOCLDY    33  28  81 E5        30.43S WCI  29
MANITOWOC      NOT AVBL
APPLETON       PTCLDY    34  27  75 E9        30.41R WCI  26
CLINTONVILLE   MOCLDY    34  28  80 SE6       30.41S WCI  29
OSHKOSH        PTCLDY    34  26  72 SE8       30.40R WCI  27
$$

WIZ032>034-041-042-053>061-190900-
SOUTHWEST WISCONSIN

CITY           SKY/WX    TMP DP  RH WIND       PRES   REMARKS
LA CROSSE      MOCLDY    43  31  62 SE9       30.30R
SPARTA         PTCLDY    39  30  69 SE12      30.34R WCI  32
VIROQUA        FAIR      38  31  76 SE15      30.31R WCI  29
BOSCOBEL       PTCLDY    39  27  62 E8        30.35R WCI  33
PRAIRIE DU CHI PTCLDY    40  30  67 E10G17    30.32R WCI  34
PLATTEVILLE    FAIR      35  29  79 E13       30.33R WCI  27
$$

WIZ056-057-062-063-064-067-068-190900-
SOUTH CENTRAL WISCONSIN

CITY           SKY/WX    TMP DP  RH WIND       PRES   REMARKS
BARABOO/DELLS  PTCLDY    34  25  69 E10       30.35S WCI  26
LONE ROCK      NOT AVBL
WATERTOWN      CLEAR     34  26  71 E9        30.37R WCI  27
MADISON        PTCLDY    34  25  69 E6        30.38R WCI  29
MIDDLETON      FAIR      36  26  66 E8        30.36S WCI  30
MONROE         PTCLDY    34  26  73 E9        30.33F WCI  26
JANESVILLE     CLEAR     36  25  64 E9        30.35S WCI  29
$$

WIZ051-052-058>065-066-070>072-190900-
SOUTHEAST WISCONSIN

CITY           SKY/WX    TMP DP  RH WIND       PRES   REMARKS
MILWAUKEE      PTCLDY    35  28  75 NE10      30.40S WCI  27
WAUKESHA       CLEAR     32  27  80 E9        30.38F WCI  24
MILWAUKEE/TIMM CLEAR     34  27  75 NE6       30.40S WCI  29
RACINE         CLEAR     36  27  69 E9        30.40S WCI  29
BURLINGTON     CLEAR     32  26  80 E3        30.38S
KENOSHA        CLEAR     34  27  75 E9        30.38S WCI  27
FOND DU LAC    PTCLDY    35  25  66 SE7       30.40R WCI  29
SHEBOYGAN      PTCLDY    33  27  78 E7        30.42R WCI  27
WEST BEND      PTCLDY    32  27  80 E6        30.40S WCI  26
JUNEAU         CLEAR     34  23  63 E10       30.39S WCI  26
$$

LSZ147-162-190900-
LAKE SUPERIOR

STATION/POSITION TIME  TEMP    WIND        PRES    WAVE
                       AIR SEA DIR/SP/G            HT/PER
                 (UTC) (F)     (DEG/KT/KT) (MB)    (FT/S)
DEVILS ISLAND    0700   33     100/ 10/ 12 1028.8F
PORT WING        0700   34      40/  6/ 10 1026.1
SAXON HARBOR     0700           CALM  /  3 1027.1F
$$

LMZ867-665-643>646-190900-
LAKE MICHIGAN

STATION/POSITION TIME  TEMP    WIND        PRES    WAVE
                       AIR SEA DIR/SP/G            HT/PER
                 (UTC) (F)     (DEG/KT/KT) (MB)    (FT/S)
NORTHPORT PIER   0700   33      70/  5/  8 1030.8R
SISTER BAY       0723   29        CALM       N/A
KEWAUNEE LAKESHO 0700   34      80/  8/ 10 1031.1R
SHEBOYGAN LAKESH 0700   36      60/  8/ 10 1031.0R
PORT WASHINGTON  0700   36      60/  6/  8 1030.1
MILWAUKEE LAKESH 0700   36      40/ 10/ 12   N/A
KENOSHA   LAKESH 0700   37      60/ 12/ 14   N/A
$$

TC  - TEMPERATURE IN CELSIUS
VSB - VISIBILITY IN STATUTE MILES
WCI - WIND CHILL INDEX
HX  - HEAT INDEX




USA.gov is the U.S. government's official web portal to all federal, state and local government web resources and services.